STARLINK-1030, 44735

Orbit data source: Space-Track

STARLINK-1030, 44735 is a payload satellite owned by SpaceX/Seattle (US) in LEO that was launched on Mon, 11 Nov 2019 UTC via an FALCON 9 launch vehicle from the Air Force Eastern Test Range (AFETR). Payload-class satellites include a variety of spacecraft equipped with specific instruments for various scientific and technological missions. These include communications satellites like Starlink; space stations such as the ISS; scientific satellites like the Hubble; Earth observation satellites from companies like Planet Labs, Umbra, and HawkEye 360; GPS; miniature CubeSats for education and research; and military/defense satellites.

Loading next visibility...
Identifier
44735, 2019-074Y
Orbit
LEO
Last TLE update
16 hours ago
Origin
Manufacturer
SpaceX/Seattle
Mission
Partially operational Commercial Communications
Bus & Motor
STARLINK, Unknown motor
Mass
260 kg wet, ~248 kg dry
Launch date (UTC)
2019-11-11 (6 years ago)
Launch vehicle
FALCON 9
Launch site
Air Force Eastern Test Range (AFETR)
Object type
Payload
Rocket body
Debris
Shape & HBR
Box + 1 Pan, 8.86 m
Radar Cross Section
13.562 m², Large (>1 m²)

Expand to show TLE details & history

TLE from 16 hours ago
0 STARLINK-1030
1 44735U 19074Y   25182.40008463  .00109618  00000-0  94469-3 0  9997
2 44735  53.0512 238.8077 0009300 325.4532  34.5878 15.68418564310818
Epoch: 2025-07-01T09:36Z
TLE epoch observation values (Epoch: 2025-07-01T09:36:07.312Z)
Latitude
-0.00005°
Longitude
175.08111°
Altitude
359.168 km
Speed
7.698 km/s
True Right ascension
15h 55m 13s
True Declination
0° 00' 00"
Sunlit
Object was in full shadow at epoch
Visualization orbit readout
Latitude
-16.76155°
Longitude
4.78001°
Altitude
371.269 km
Speed
7.685 km/s
Apparent Right ascension
03h 13m 40s
Apparent Declination
-29° 54' 54"
Sunlit
Object is in daylight
Visualization observer readout
Local Sidereal Time
13:25:51
Azimuth
286.08° WNW
Elevation
-65.866°
Doppler factor
1
Orbital elements
Apogee altitude
369.973 km
Perigee altitude
357.433 km
Semi-major axis
6,741.84 km
Eccentricity
0.00093
Inclination
53.0512°
RAAN
238.8077°
Arg. of periapsis
325.4532°
True anomaly
Unknown
Mean anomaly
34.5878°
Eccentric anomaly
Unknown
Mean motion
3.92081 °/min
Orbital period
91.82 mins
BSTAR
0.00094469
Loading maneuver chart data...
Loading SW <> Apogee altitude chart data...

STARLINK-1030 Visibility forecast

Observer location: undefined°, undefined°

Span
Click to sort rows by Start time (UTC) header in descending order
Start Az.
Max El. time (UTC)
Max El. Az.
Max El.
End time (UTC)
End Az.
4 mins2025-07-02 05:38:53.289Z176.389° S2025-07-02 05:40:53.289Z124.181° SE20.112°2025-07-02 05:42:53.289Z80.095° E
|